STARLINK-2661 (48469 NORAD) Tracking and Keplerian Element Data

This shows tracking and keplerian element data for the satellite.

Feedback or suggestion? Click here.




ElementValue
Catalog48469
NameSTARLINK-2661
Epoch Orbit360
Epoch Day214.91667824
Epoch Year2021
RAAN172.3997
Inclination53.0541
Eccentricity0.0001637
Argument of Perigee85.333
Mean Anonmoly93.5607
Mean Motion15.06391514
Decay Rate6.71E-06
L11 48469U 21040AT 21214.91667824 .00000671 00000-0 63945-4 0 9996
L22 48469 53.0541 172.3997 0001637 85.3330 93.5607 15.06391514 3602

Live tracking and technical data element details for STARLINK-2661 (NORAD 48469). STARLINK-2661 can be tracked NOW for your location showing map with azimuth and elevation plus other details from your city location.

Track the satellite on the map from your city or location and see movement details for azimuth, elevation, latitude, longitude, range, height, and movement on the map or in text.







IsCatalogInMostPopularTable: catalog: 48469, numindb: 29
Update: records affected: 1



GetName: 48469 STARLINK-2661

Hit Count: updated at: Wed, 04 Aug 2021 00:21:38 GMT